User: anonymous   Login
Location: Unspecified
(0.0000°N, 0.0000°E)
Time: 22:17:25
(UTC+02:00)
Language:

Resurs 1-3 - Orbit

View from above orbital plane
View from above orbital plane
View from above satellite
View from above satellite

Ground track
Ground track

The orbit data is extracted from the following two-line orbital elements,

1 23342U 94074A   16210.67612279  .00000101  00000-0  13638-4 0  9995
2 23342  98.1151 240.6014 0001814  82.6317 277.5597 14.79185653170255
Epoch (UTC): 28 July 2016 16:13:37
Eccentricity: 0.0001814
inclination: 98.1151°
perigee height: 630 km
apogee height: 633 km
right ascension of ascending node: 240.6014°
argument of perigee: 82.6317°
revolutions per day: 14.79185653
mean anomaly at epoch: 277.5597°
orbit number at epoch: 17025

The dashed part of the orbit path shows where the satellite is in the earth's shadow,  

DLR